CAPELLA-10 (WHITNEY)

导读 | 豆包AI

CAPELLA-10(WHITNEY)是美国卡佩拉空间公司于2023年3月16日发射的合成孔径雷达遥感卫星,隶属于Capella商业遥感卫星星座。该卫星具备高分辨率对地成像能力,可不受光照、云雨天候影响,获取全球任意区域地面目标高清微波图像,服务于环境监测、灾害评估、测绘及国防侦察等领域,进一步强化了美国商业天基雷达遥感的全球覆盖能力。

Basic Information
目录编号:
55909
目录名称:
CAPELLA-10 (WHITNEY)
国际标识:
2023-035B
轨道中心:
EARTH
卫星名称:
CAPELLA-10 (WHITNEY)
卫星全名:
--
卫星状态:
已陨落 最后检测时间 2025-05-05
发射日期:
2023-03-16 UTC
国别 :
美国 (US)
星等 :
--
Orbit Information
数据来源 国际轨道数据
星历时间: 2025-05-05T08:22:33+0800
轨道信息已过期312天
半长轴: 6572.306km
偏心率: 0.0011327
轨道倾角: 43.966°
近地点辐角 191.899°
升交点赤经 62.222°
平近点角 221.068°
近地点: 186.726km
远地点: 201.616km
周期: 88.376分钟
每日圈数: 16.29394
Detailed Information
使用方式:
暂无